User: anonymous   Login
Location: B?dargowo
(53.3916°N, 14.4413°E)
Time: 19:11:47
(UTC+00:00)
Language:

Cosmos 540 - Orbit

View from above orbital plane
View from above orbital plane
View from above satellite
View from above satellite

Ground track
Ground track

The orbit data is extracted from the following two-line orbital elements,

1  6323U 72104A   24057.85086614  .00000340  00000-0  12346-3 0  9990
2  6323  74.0805 203.0939 0017631  21.3255 338.8629 14.36881489678419
Epoch (UTC): 26 February 2024 20:25:14
Eccentricity: 0.0017631
inclination: 74.0805°
perigee height: 756 km
apogee height: 781 km
right ascension of ascending node: 203.0939°
argument of perigee: 21.3255°
revolutions per day: 14.36881489
mean anomaly at epoch: 338.8629°
orbit number at epoch: 67841

The dashed part of the orbit path shows where the satellite is in the earth's shadow,  

DLR